Location: Newark
(35.9031°N, 139.7175°E)
Time: 13:01:09
(UTC+00:00)

Transit 2A - Pass Details

Date: 29 May 2020
Orbit: 592 x 967 km, 66.7° (Epoch: 06 July)

Event Time Altitude Azimuth Distance (km) Brightness Sun altitude
Rises 11:46:34 0° 348° (NNW) 3,539 10.5 -19.5°
Reaches altitude 10° 11:50:11 10° 9° (N) 2,647 9.3 -19.9°
Maximum altitude 11:53:53 16° 46° (NE) 2,272 8.5 -20.4°
Enters shadow 11:57:11 11° 79° (E) 2,614 8.5 -20.9°
